This is the latest recevied weather packets stored in our database for station/object N3FWE. If no packets are shown the sender has not sent any weather packets the latest 10 day(s).
| Time | Temp. | Humidity | Pressure | Rain* | Wind** | Luminosity | Snow |
|---|---|---|---|---|---|---|---|
| 1777840814 | 16.67° C | 35% | 1013.7 hPa | 0 mm | - | - | - |
| 1777840215 | 16.67° C | 34% | 1013.7 hPa | 0 mm | - | - | - |
| 1777839614 | 16.67° C | 37% | 1013.8 hPa | 0 mm | - | - | - |
| 1777839014 | 16.11° C | 35% | 1013.9 hPa | 0 mm | - | - | - |
| 1777838414 | 15.56° C | 34% | 1014 hPa | 0 mm | - | - | - |
| 1777837814 | 15.56° C | 35% | 1014.1 hPa | 0 mm | - | - | - |
| 1777837214 | 16.67° C | 33% | 1014.2 hPa | 0 mm | - | - | - |
| 1777836614 | 16.11° C | 34% | 1014.3 hPa | 0 mm | - | - | - |
| 1777836014 | 16.11° C | 34% | 1014.3 hPa | 0 mm | - | - | - |
| 1777835414 | 16.67° C | 36% | 1014.4 hPa | 0 mm | - | - | - |
| 1777834812 | 16.11° C | 34% | 1014.7 hPa | 0 mm | - | - | - |
| 1777834214 | 16.11° C | 35% | 1014.8 hPa | 0 mm | - | - | - |
| 1777833615 | 16.67° C | 34% | 1014.9 hPa | 0 mm | - | - | - |
| 1777833014 | 16.11° C | 34% | 1015.1 hPa | 0 mm | - | - | - |
| 1777832414 | 16.11° C | 36% | 1015 hPa | 0 mm | - | - | - |
| 1777831814 | 15.56° C | 35% | 1015 hPa | 0 mm | - | - | - |
| 1777831214 | 15.56° C | 33% | 1015 hPa | 0 mm | - | - | - |
| 1777830614 | 15.56° C | 37% | 1015.1 hPa | 0 mm | - | - | - |
| 1777830015 | 15° C | 37% | 1015.2 hPa | 0 mm | - | - | - |
| 1777829414 | 15° C | 33% | 1015.1 hPa | 0 mm | - | - | - |
| 1777828814 | 15° C | 38% | 1015.4 hPa | 0 mm | - | - | - |
| 1777828214 | 15° C | 40% | 1015.4 hPa | 0 mm | - | - | - |
| 1777827615 | 13.89° C | 38% | 1015.7 hPa | 0 mm | - | - | - |
| 1777827015 | 13.33° C | 35% | 1015.8 hPa | 0 mm | - | - | - |
| 1777826414 | 13.89° C | 39% | 1016.1 hPa | 0 mm | - | - | - |
* Rain latest hour (hover to see other rain measurements)
** Current wind speed in m/s (hover to see current wind gust speed)